User: anonymous   Login
Location: Fiddletown
(38.4917°N, 120.6633°W)
Time: 13:15:26
(UTC-08:00)
Language:

Envisat - Orbit

View from above orbital plane
View from above orbital plane
View from above satellite
View from above satellite

Ground track
Ground track

The orbit data is extracted from the following two-line orbital elements,

1 27386U 02009A   16344.41455676  .00000007  00000-0  16177-4 0  9996
2 27386  98.2600  31.3403 0001172  77.6448 282.4870 14.37883704773805
Epoch (UTC): 09 December 2016 09:56:57
Eccentricity: 0.0001172
inclination: 98.2600°
perigee height: 764 km
apogee height: 766 km
right ascension of ascending node: 31.3403°
argument of perigee: 77.6448°
revolutions per day: 14.37883704
mean anomaly at epoch: 282.4870°
orbit number at epoch: 77380

The dashed part of the orbit path shows where the satellite is in the earth's shadow,  

DLR